Location: Siloam Springs
(36.1881°N, 94.5403°W)
Time: 12:17:05
(UTC-05:00)

RS-15 - Visible Passes

Search period start: 26 May 2024 00:00
Search period end: 05 June 2024 00:00
Orbit: 1896 x 2149 km, 64.8° (Epoch: 26 May)

Date Brightness Start Highest point End Pass type
(mag) Time Alt. Az. Time Alt. Az. Time Alt. Az.
26 May 7.8 00:36:30 10° NNW 00:47:35 82° ENE 00:50:39 55° SE visible
26 May 8.9 02:50:59 10° WNW 02:58:22 22° W 02:58:22 22° W visible
26 May 9.5 21:48:40 10° NNW 21:56:21 20° NNE 22:03:51 10° ENE visible
27 May 8.0 00:00:29 10° NNW 00:11:28 65° NE 00:15:34 42° ESE visible
27 May 8.6 02:13:55 10° NW 02:22:55 31° WSW 02:23:18 31° WSW visible
27 May 9.6 21:12:33 10° NNW 21:19:13 17° NNE 21:25:45 10° ENE visible
27 May 8.3 23:24:31 10° NNW 23:35:12 51° NE 23:40:32 31° ESE visible
28 May 8.2 01:37:17 10° NW 01:47:15 43° WSW 01:48:16 42° WSW visible
28 May 8.7 22:48:35 10° NNW 22:58:48 40° NE 23:05:32 21° ESE visible
29 May 7.9 01:00:54 10° NW 01:11:30 58° WSW 01:13:16 53° SW visible
29 May 9.0 22:12:39 10° NNW 22:22:13 32° NE 22:30:34 13° E visible
30 May 7.8 00:24:40 10° NNW 00:35:38 76° WSW 00:38:18 57° S visible
30 May 9.4 02:41:34 10° WNW 02:45:56 13° W 02:46:02 13° W visible
30 May 9.2 21:36:43 10° NNW 21:45:29 25° NE 21:54:02 10° E visible
30 May 7.8 23:48:34 10° NNW 23:59:39 85° ENE 00:03:22 49° SE visible
31 May 9.1 02:03:16 10° WNW 02:10:29 21° W 02:11:06 21° WSW visible
31 May 9.5 21:00:44 10° NNW 21:08:33 21° NNE 21:16:12 10° ENE visible
31 May 8.0 23:12:33 10° NNW 23:23:32 67° ENE 23:28:27 38° SE visible
01 Jun 8.7 01:26:06 10° NW 01:34:55 30° WSW 01:36:12 29° WSW visible
01 Jun 8.3 22:36:34 10° NNW 22:47:18 52° NE 22:53:36 27° ESE visible
02 Jun 8.4 00:49:24 10° NW 00:59:16 41° WSW 01:01:20 38° SW visible
02 Jun 8.6 22:00:38 10° NNW 22:10:55 41° NE 22:18:46 17° ESE visible
03 Jun 8.1 00:13:00 10° NW 00:23:31 55° WSW 00:26:31 45° SSW visible
03 Jun 8.9 21:24:42 10° NNW 21:34:22 33° NE 21:43:49 10° ESE visible
03 Jun 7.9 23:36:45 10° NNW 23:47:40 73° WSW 23:51:42 45° S visible
04 Jun 9.5 01:54:14 10° WNW 01:57:54 12° W 01:59:27 12° WSW visible
04 Jun 9.2 20:48:46 10° NNW 20:57:39 26° NE 21:06:20 10° E visible
04 Jun 7.8 23:00:38 10° NNW 23:11:41 88° ENE 23:16:56 38° SSE visible
